Year,Month,Day,Hour,Minute,Value (Times are PST for temperature in C)
2021,12,01,00,00,11.70
2021,12,01,00,01,11.70
2021,12,01,00,02,11.70
2021,12,01,00,03,11.70
2021,12,01,00,04,11.70
2021,12,01,00,05,11.70
2021,12,01,00,06,11.70
2021,12,01,00,07,11.70
2021,12,01,00,08,11.70
2021,12,01,00,09,11.70
2021,12,01,00,10,11.70
2021,12,01,00,11,11.70
2021,12,01,00,12,11.70
2021,12,01,00,13,11.70
2021,12,01,00,14,11.70
2021,12,01,00,15,11.70
2021,12,01,00,16,11.70
2021,12,01,00,17,11.70
2021,12,01,00,18,11.70
2021,12,01,00,19,11.70
2021,12,01,05,08,11.10
2021,12,01,05,09,11.10
2021,12,01,05,10,11.10
2021,12,01,05,11,11.10
2021,12,01,05,12,11.00
2021,12,01,05,13,11.00
2021,12,01,05,14,11.00
2021,12,01,05,15,11.00
2021,12,01,05,16,11.00
2021,12,01,05,17,11.00
2021,12,01,05,18,11.00
2021,12,01,05,19,11.00
2021,12,01,05,20,11.00
2021,12,01,05,21,11.00
2021,12,01,05,22,11.00
2021,12,01,05,23,10.90
2021,12,01,05,24,10.90
2021,12,01,05,25,10.90
2021,12,01,05,26,10.90
2021,12,01,05,27,10.90
2021,12,01,05,28,10.90
2021,12,01,05,29,10.90
2021,12,01,05,30,10.90
2021,12,01,05,31,10.90
2021,12,01,05,32,10.90
2021,12,01,05,33,10.90
2021,12,01,05,34,10.90
2021,12,01,05,35,11.00
2021,12,01,05,36,11.00
2021,12,01,05,37,11.00
2021,12,01,05,38,11.00
2021,12,01,05,39,11.10
2021,12,01,05,40,11.10
2021,12,01,05,41,11.10
2021,12,01,05,42,11.10
2021,12,01,05,43,11.10
2021,12,01,05,44,11.10
2021,12,01,05,45,11.10
2021,12,01,05,46,11.10
2021,12,01,05,47,11.10
2021,12,01,05,48,11.10
2021,12,01,05,49,11.10
2021,12,01,05,50,11.10
2021,12,01,05,51,11.20
2021,12,01,05,52,11.20
2021,12,01,05,53,11.20
2021,12,01,05,54,11.20
2021,12,01,05,55,11.20
2021,12,01,05,56,11.20
2021,12,01,05,57,11.20
2021,12,01,05,58,11.30
2021,12,01,05,59,11.30
2021,12,01,06,00,11.30
2021,12,01,06,01,11.40
2021,12,01,06,02,11.40
2021,12,01,06,03,11.40
2021,12,01,06,04,11.40
2021,12,01,06,05,11.40
2021,12,01,06,06,11.40
2021,12,01,06,07,11.40
2021,12,01,06,08,11.40
2021,12,01,06,09,11.40
2021,12,01,06,10,11.40
2021,12,01,06,11,11.40
2021,12,01,06,12,11.50
2021,12,01,06,13,11.50
2021,12,01,06,14,11.50
2021,12,01,06,15,11.60
2021,12,01,06,16,11.60
2021,12,01,06,17,11.60
2021,12,01,06,18,11.60
2021,12,01,06,19,11.60
2021,12,01,06,20,11.60
2021,12,01,06,21,11.60
2021,12,01,06,22,11.60
2021,12,01,06,23,11.60
2021,12,01,06,24,11.60
2021,12,01,06,25,11.60
2021,12,01,06,26,11.60
2021,12,01,06,27,11.60
2021,12,01,06,28,11.60
2021,12,01,06,29,11.60
2021,12,01,06,30,11.60
2021,12,01,06,31,11.60
2021,12,01,06,32,11.60
2021,12,01,06,33,11.60
2021,12,01,06,34,11.60
2021,12,01,06,35,11.60
2021,12,01,06,36,11.60
2021,12,01,06,37,11.60
2021,12,01,06,38,11.50
2021,12,01,06,39,11.50
2021,12,01,06,40,11.50
2021,12,01,06,41,11.50
2021,12,01,06,42,11.50
2021,12,01,06,43,11.50
2021,12,01,06,44,11.50
2021,12,01,06,45,11.50
2021,12,01,06,46,11.50
2021,12,01,06,47,11.50
2021,12,01,06,48,11.50
2021,12,01,06,49,11.50
2021,12,01,06,50,11.40
2021,12,01,06,51,11.40
2021,12,01,06,52,11.40
2021,12,01,06,53,11.40
2021,12,01,06,54,11.40
2021,12,01,06,55,11.40
2021,12,01,06,56,11.40
2021,12,01,06,57,11.40
2021,12,01,06,58,11.40
2021,12,01,06,59,11.40
2021,12,01,08,23,11.10
2021,12,01,08,24,11.10
2021,12,01,08,25,11.10
2021,12,01,08,26,11.10
2021,12,01,08,27,11.10
2021,12,01,08,28,11.10
2021,12,01,08,29,11.10
2021,12,01,08,30,11.10
2021,12,01,08,31,11.10
2021,12,01,08,32,11.10
2021,12,01,08,33,11.10
2021,12,01,08,34,11.10
2021,12,01,08,35,11.10
2021,12,01,08,36,11.00
2021,12,01,08,37,11.00
2021,12,01,08,38,11.00
2021,12,01,08,39,11.00
2021,12,01,08,40,11.00
2021,12,01,08,41,11.00
2021,12,01,08,42,11.00
2021,12,01,08,43,11.00
2021,12,01,08,44,11.00
2021,12,01,08,45,11.00
2021,12,01,08,46,11.00
2021,12,01,08,47,11.00
2021,12,01,08,48,11.00
2021,12,01,08,49,10.90
2021,12,01,08,50,10.90
2021,12,01,08,51,10.90
2021,12,01,08,52,10.90
2021,12,01,08,53,10.90
2021,12,01,08,54,10.90
2021,12,01,08,55,10.90
2021,12,01,08,56,10.90
2021,12,01,08,57,10.90
2021,12,01,08,58,10.90
2021,12,01,08,59,10.90
2021,12,01,09,00,10.90
2021,12,01,09,01,10.90
2021,12,01,09,02,10.90
2021,12,01,09,03,10.90
2021,12,01,09,04,10.90
2021,12,01,09,05,10.90
2021,12,01,09,06,10.90
2021,12,01,09,07,10.90
2021,12,01,09,08,10.90
2021,12,01,09,09,10.90
2021,12,01,09,10,11.00
2021,12,01,09,11,11.00
2021,12,01,09,12,11.00
2021,12,01,09,13,11.00
2021,12,01,09,14,11.00
2021,12,01,09,15,11.00
2021,12,01,09,16,11.00
2021,12,01,09,17,11.10
2021,12,01,09,18,11.10
2021,12,01,09,19,11.10
2021,12,01,09,20,11.10
2021,12,01,09,21,11.10
2021,12,01,09,22,11.10
2021,12,01,09,23,11.10
2021,12,01,09,24,11.10
2021,12,01,09,25,11.10
2021,12,01,09,26,11.10
2021,12,01,09,27,11.10
2021,12,01,09,28,11.10
2021,12,01,09,29,11.10
2021,12,01,09,30,11.10
2021,12,01,09,31,11.10
2021,12,01,09,32,11.10
2021,12,01,09,33,11.10
2021,12,01,09,34,11.10
2021,12,01,09,35,11.20
2021,12,01,09,36,11.20
2021,12,01,09,37,11.20
2021,12,01,09,38,11.20
2021,12,01,09,39,11.20
2021,12,01,09,40,11.20
2021,12,01,09,41,11.20
2021,12,01,09,42,11.20
2021,12,01,09,43,11.20
2021,12,01,09,44,11.20
2021,12,01,09,45,11.20
2021,12,01,09,46,11.30
2021,12,01,09,47,11.30
2021,12,01,09,48,11.30
2021,12,01,09,49,11.30
2021,12,01,09,50,11.30
2021,12,01,09,51,11.30
2021,12,01,09,52,11.30
2021,12,01,09,53,11.30
2021,12,01,09,54,11.30
2021,12,01,09,55,11.30
2021,12,01,09,56,11.30
2021,12,01,09,57,11.30
2021,12,01,09,58,11.30
2021,12,01,09,59,11.30
2021,12,01,10,00,11.30
2021,12,01,10,01,11.30
2021,12,01,10,02,11.30
2021,12,01,10,03,11.30
2021,12,01,10,04,11.30
2021,12,01,10,05,11.30
2021,12,01,10,06,11.30
2021,12,01,10,07,11.30
2021,12,01,10,08,11.30
2021,12,01,10,09,11.40
2021,12,01,10,10,11.40
2021,12,01,10,11,11.40
2021,12,01,10,12,11.40
2021,12,01,10,13,11.40
2021,12,01,10,14,11.40
2021,12,01,10,15,11.40
2021,12,01,10,16,11.40
2021,12,01,10,17,11.40
2021,12,01,10,18,11.40
2021,12,01,10,19,11.40
2021,12,01,10,20,11.40
2021,12,01,10,21,11.40
2021,12,01,10,22,11.50
2021,12,01,10,23,11.50
2021,12,01,10,24,11.50
2021,12,01,10,25,11.50
2021,12,01,10,26,11.50
2021,12,01,10,27,11.50
2021,12,01,10,28,11.60
2021,12,01,10,29,11.60
2021,12,01,10,30,11.60
2021,12,01,10,31,11.60
2021,12,01,10,32,11.60
2021,12,01,10,33,11.60
2021,12,01,10,34,11.60
2021,12,01,10,35,11.60
2021,12,01,10,36,11.60
2021,12,01,10,37,11.60
2021,12,01,10,38,11.60
2021,12,01,10,39,11.60
2021,12,01,10,40,11.60
2021,12,01,10,41,11.60
2021,12,01,10,42,11.60
2021,12,01,10,43,11.60
2021,12,01,10,44,11.60
2021,12,01,10,45,11.60
2021,12,01,10,46,11.60
2021,12,01,10,47,11.60
2021,12,01,10,48,11.60
2021,12,01,10,49,11.60
2021,12,01,10,50,11.60
2021,12,01,10,51,11.60
2021,12,01,10,52,11.60
2021,12,01,10,53,11.60
2021,12,01,10,54,11.60
2021,12,01,10,55,11.60
2021,12,01,10,56,11.60
2021,12,01,10,57,11.60
2021,12,01,10,58,11.60
2021,12,01,10,59,11.60
2021,12,01,11,00,11.60
2021,12,01,11,01,11.60
2021,12,01,11,02,11.60
2021,12,01,11,03,11.60
2021,12,01,11,04,11.60
2021,12,01,11,05,11.60
2021,12,01,11,06,11.60
2021,12,01,11,07,11.60
2021,12,01,11,08,11.50
2021,12,01,11,09,11.50
2021,12,01,11,10,11.50
2021,12,01,11,11,11.60
2021,12,01,11,12,11.60
2021,12,01,11,13,11.60
2021,12,01,11,14,11.60
2021,12,01,11,15,11.60
2021,12,01,11,16,11.60
2021,12,01,11,17,11.60
2021,12,01,11,18,11.60
2021,12,01,11,19,11.60
2021,12,01,11,20,11.60
2021,12,01,11,21,11.60
2021,12,01,11,22,11.60
2021,12,01,11,23,11.60
2021,12,01,11,24,11.60
2021,12,01,11,25,11.60
2021,12,01,11,26,11.60
2021,12,01,11,27,11.70
2021,12,01,11,28,11.70
2021,12,01,11,29,11.70
2021,12,01,11,30,11.70
2021,12,01,11,31,11.70
2021,12,01,11,32,11.70
2021,12,01,11,33,11.70
2021,12,01,11,34,11.70
2021,12,01,11,35,11.70
2021,12,01,11,36,11.70
2021,12,01,11,37,11.70
2021,12,01,11,38,11.70
2021,12,01,11,39,11.70
2021,12,01,11,40,11.80
2021,12,01,11,41,11.80
2021,12,01,11,42,11.80
2021,12,01,11,43,11.80
2021,12,01,11,44,11.80
2021,12,01,11,45,11.80
2021,12,01,11,46,11.80
2021,12,01,11,47,11.80
2021,12,01,11,48,11.80
2021,12,01,11,49,11.80
2021,12,01,11,50,11.80
2021,12,01,11,51,11.80
2021,12,01,11,52,11.80
2021,12,01,11,53,11.80
2021,12,01,11,54,11.80
2021,12,01,11,55,11.80
2021,12,01,11,56,11.80
2021,12,01,11,57,11.80
2021,12,01,11,58,11.80
2021,12,01,11,59,11.80
2021,12,01,12,00,11.80
2021,12,01,12,01,11.80
2021,12,01,12,02,11.80
2021,12,01,12,03,11.80
2021,12,01,12,04,11.80
2021,12,01,12,05,11.80
2021,12,01,12,06,11.90
2021,12,01,12,07,11.90
2021,12,01,12,08,11.90
2021,12,01,12,09,11.90
2021,12,01,12,10,11.90
2021,12,01,12,11,11.90
2021,12,01,12,12,11.90
2021,12,01,12,13,11.90
2021,12,01,12,14,12.00
2021,12,01,12,15,12.00
2021,12,01,12,16,12.00
2021,12,01,12,17,12.00
2021,12,01,12,18,12.00
2021,12,01,12,19,12.10
2021,12,01,12,20,12.10
2021,12,01,12,21,12.10
2021,12,01,12,22,12.10
2021,12,01,12,23,12.10
2021,12,01,12,24,12.10
2021,12,01,12,25,12.20
2021,12,01,12,26,12.20
2021,12,01,12,27,12.20
2021,12,01,12,28,12.20
2021,12,01,12,29,12.20
2021,12,01,12,30,12.20
2021,12,01,12,31,12.30
2021,12,01,12,32,12.30
2021,12,01,12,33,12.30
2021,12,01,12,34,12.30
2021,12,01,12,35,12.30
2021,12,01,12,36,12.30
2021,12,01,12,37,12.30
2021,12,01,12,38,12.30
2021,12,01,12,39,12.40
2021,12,01,12,40,12.40
2021,12,01,12,41,12.40
2021,12,01,12,42,12.40
2021,12,01,12,43,12.40
2021,12,01,12,44,12.40
2021,12,01,12,45,12.40
2021,12,01,12,46,12.40
2021,12,01,12,47,12.50
2021,12,01,12,48,12.50
2021,12,01,12,49,12.50
2021,12,01,12,50,12.50
2021,12,01,12,51,12.50
2021,12,01,12,52,12.50
2021,12,01,12,53,12.50
2021,12,01,12,54,12.60
2021,12,01,12,55,12.60
2021,12,01,12,56,12.60
2021,12,01,12,57,12.60
2021,12,01,12,58,12.60
2021,12,01,12,59,12.60
2021,12,01,13,00,12.70
2021,12,01,13,01,12.70
2021,12,01,13,02,12.70
2021,12,01,13,03,12.70
2021,12,01,13,04,12.70
2021,12,01,13,05,12.70
2021,12,01,13,06,12.70
2021,12,01,13,07,12.70
2021,12,01,13,08,12.70
2021,12,01,13,09,12.70
2021,12,01,13,10,12.70
2021,12,01,13,11,12.70
2021,12,01,13,12,12.70
2021,12,01,13,13,12.70
2021,12,01,13,14,12.80
2021,12,01,13,15,12.80
2021,12,01,13,16,12.80
2021,12,01,13,17,12.80
2021,12,01,13,18,12.80
2021,12,01,13,19,12.80
2021,12,01,13,20,12.80
2021,12,01,13,21,12.80
2021,12,01,13,22,12.80
2021,12,01,13,23,12.80
2021,12,01,13,24,12.80
2021,12,01,13,25,12.80
2021,12,01,13,26,12.80
2021,12,01,13,27,12.80
2021,12,01,13,28,12.80
2021,12,01,13,29,12.80
2021,12,01,13,30,12.80
2021,12,01,13,31,12.80
2021,12,01,13,32,12.80
2021,12,01,13,33,12.80
2021,12,01,13,34,12.80
2021,12,01,13,35,12.80
2021,12,01,13,36,12.80
2021,12,01,13,37,12.80
2021,12,01,13,38,12.80
2021,12,01,13,39,12.80
2021,12,01,13,40,12.80
2021,12,01,13,41,12.80
2021,12,01,13,42,12.80
2021,12,01,13,43,12.80
2021,12,01,13,44,12.80
2021,12,01,13,45,12.80
2021,12,01,13,46,12.80
2021,12,01,13,47,12.80
2021,12,01,13,48,12.80
2021,12,01,13,49,12.80
2021,12,01,13,50,12.80
2021,12,01,13,51,12.80
2021,12,01,13,52,12.80
2021,12,01,13,53,12.80
2021,12,01,13,54,12.80
2021,12,01,13,55,12.80
2021,12,01,13,56,12.80
2021,12,01,13,57,12.80
2021,12,01,13,58,12.80
2021,12,01,13,59,12.80
2021,12,01,14,00,12.80
2021,12,01,14,01,12.80
2021,12,01,14,02,12.80
2021,12,01,14,03,12.80
2021,12,01,14,04,12.70
2021,12,01,14,05,12.70
2021,12,01,14,06,12.70
2021,12,01,14,07,12.70
2021,12,01,14,08,12.70
2021,12,01,14,09,12.70
2021,12,01,14,10,12.80
2021,12,01,14,11,12.80
2021,12,01,14,12,12.80
2021,12,01,14,13,12.80
2021,12,01,14,14,12.80
2021,12,01,14,15,12.80
2021,12,01,14,16,12.80
2021,12,01,14,17,12.80
2021,12,01,14,18,12.70
2021,12,01,14,19,12.70
2021,12,01,14,20,12.70
2021,12,01,14,21,12.70
2021,12,01,14,22,12.70
2021,12,01,14,23,12.70
2021,12,01,14,24,12.70
2021,12,01,14,25,12.70
2021,12,01,14,26,12.70
2021,12,01,14,27,12.70
2021,12,01,14,28,12.70
2021,12,01,14,29,12.70
2021,12,01,14,30,12.70
2021,12,01,14,31,12.70
2021,12,01,14,32,12.70
2021,12,01,14,33,12.70
2021,12,01,14,34,12.70
2021,12,01,14,35,12.60
2021,12,01,14,36,12.60
2021,12,01,14,37,12.60
2021,12,01,14,38,12.60
2021,12,01,14,39,12.60
2021,12,01,14,40,12.60
2021,12,01,14,41,12.60
2021,12,01,14,42,12.60
2021,12,01,14,43,12.60
2021,12,01,14,44,12.60
2021,12,01,14,45,12.60
2021,12,01,14,46,12.60
2021,12,01,14,47,12.60
2021,12,01,14,48,12.60
2021,12,01,14,49,12.60
2021,12,01,14,50,12.60
2021,12,01,14,51,12.60
2021,12,01,14,52,12.60
2021,12,01,14,53,12.50
2021,12,01,14,54,12.50
2021,12,01,14,55,12.50
2021,12,01,14,56,12.50
2021,12,01,14,57,12.50
2021,12,01,14,58,12.50
2021,12,01,14,59,12.50
2021,12,01,15,00,12.50
2021,12,01,15,01,12.50
2021,12,01,15,02,12.50
2021,12,01,15,03,12.50
2021,12,01,15,04,12.50
2021,12,01,15,05,12.50
2021,12,01,15,06,12.50
2021,12,01,15,07,12.50
2021,12,01,15,08,12.50
2021,12,01,15,09,12.50
2021,12,01,15,10,12.50
2021,12,01,15,11,12.50
2021,12,01,15,12,12.50
2021,12,01,15,13,12.50
2021,12,01,15,14,12.50
2021,12,01,15,15,12.50
2021,12,01,15,16,12.50
2021,12,01,15,17,12.50
2021,12,01,15,18,12.50
2021,12,01,15,19,12.50
2021,12,01,15,20,12.50
2021,12,01,15,21,12.50
2021,12,01,15,22,12.40
2021,12,01,15,23,12.50
2021,12,01,15,24,12.40
2021,12,01,15,25,12.40
2021,12,01,15,26,12.40
2021,12,01,15,27,12.40
2021,12,01,15,28,12.40
2021,12,01,15,29,12.40
2021,12,01,15,30,12.40
2021,12,01,15,31,12.40
2021,12,01,15,32,12.40
2021,12,01,15,33,12.40
2021,12,01,15,34,12.40
2021,12,01,15,35,12.40
2021,12,01,15,36,12.40
2021,12,01,15,37,12.40
2021,12,01,15,38,12.40
2021,12,01,15,39,12.40
2021,12,01,15,40,12.40
2021,12,01,15,41,12.40
2021,12,01,15,42,12.40
2021,12,01,15,43,12.40
2021,12,01,15,44,12.40
2021,12,01,15,45,12.30
2021,12,01,15,46,12.30
2021,12,01,15,47,12.30
2021,12,01,15,48,12.30
2021,12,01,15,49,12.30
2021,12,01,15,50,12.30
2021,12,01,15,51,12.30
2021,12,01,15,52,12.30
2021,12,01,15,53,12.30
2021,12,01,15,54,12.30
2021,12,01,15,55,12.30
2021,12,01,15,56,12.30
2021,12,01,15,57,12.30
2021,12,01,15,58,12.30
2021,12,01,15,59,12.30
2021,12,01,16,00,12.20
2021,12,01,16,01,12.20
2021,12,01,16,02,12.20
2021,12,01,16,03,12.20
2021,12,01,16,04,12.20
2021,12,01,16,05,12.20
2021,12,01,16,06,12.20
2021,12,01,16,07,12.20
2021,12,01,16,08,12.20
2021,12,01,16,09,12.10
2021,12,01,16,10,12.10
2021,12,01,16,11,12.10
2021,12,01,16,12,12.10
2021,12,01,16,13,12.10
2021,12,01,16,14,12.00
2021,12,01,16,15,12.00
2021,12,01,16,16,12.00
2021,12,01,16,17,12.00
2021,12,01,16,18,12.00
2021,12,01,16,19,11.90
2021,12,01,16,20,11.90
2021,12,01,16,21,11.90
2021,12,01,16,22,11.90
2021,12,01,16,23,11.90
2021,12,01,16,24,11.90
2021,12,01,16,25,11.90
2021,12,01,16,26,11.90
2021,12,01,16,27,11.90
2021,12,01,16,28,11.90
2021,12,01,16,29,11.90
2021,12,01,16,30,11.90
2021,12,01,16,31,11.90
2021,12,01,16,32,11.90
2021,12,01,16,33,11.80
2021,12,01,16,34,11.80
2021,12,01,16,35,11.80
2021,12,01,16,36,11.80
2021,12,01,16,37,11.80
2021,12,01,16,38,11.80
2021,12,01,16,39,11.80
2021,12,01,16,40,11.80
2021,12,01,16,41,11.80
2021,12,01,16,42,11.80
2021,12,01,16,43,11.80
2021,12,01,16,44,11.80
2021,12,01,16,45,11.80
2021,12,01,16,46,11.80
2021,12,01,16,47,11.80
2021,12,01,16,48,11.80
2021,12,01,16,49,11.80
2021,12,01,16,50,11.80
2021,12,01,16,51,11.80
2021,12,01,16,52,11.80
2021,12,01,16,53,11.80
2021,12,01,16,54,11.80
2021,12,01,16,55,11.80
2021,12,01,16,56,11.80
2021,12,01,16,57,11.80
2021,12,01,16,58,11.80
2021,12,01,16,59,11.80
2021,12,01,17,00,11.80
2021,12,01,17,01,11.80
2021,12,01,17,02,11.80
2021,12,01,17,03,11.80
2021,12,01,17,04,11.80
2021,12,01,17,05,11.80
2021,12,01,17,06,11.80
2021,12,01,17,07,11.80
2021,12,01,17,08,11.80
2021,12,01,17,09,11.70
2021,12,01,17,10,11.70
2021,12,01,17,11,11.70
2021,12,01,17,12,11.70
2021,12,01,17,13,11.70
2021,12,01,17,14,11.70
2021,12,01,17,15,11.70
2021,12,01,17,16,11.70
2021,12,01,17,17,11.70
2021,12,01,17,18,11.70
2021,12,01,17,19,11.70
2021,12,01,17,20,11.70
2021,12,01,17,21,11.70
2021,12,01,17,22,11.70
2021,12,01,17,23,11.70
2021,12,01,17,24,11.70
2021,12,01,17,25,11.70
2021,12,01,17,26,11.70
2021,12,01,17,27,11.70
2021,12,01,17,28,11.60
2021,12,01,17,29,11.60
2021,12,01,17,30,11.60
2021,12,01,17,31,11.60
2021,12,01,17,32,11.60
2021,12,01,17,33,11.60
2021,12,01,17,34,11.60
2021,12,01,17,35,11.60
2021,12,01,17,36,11.60
2021,12,01,17,37,11.60
2021,12,01,17,38,11.50
2021,12,01,17,39,11.50
2021,12,01,17,40,11.50
2021,12,01,17,41,11.50
2021,12,01,17,42,11.50
2021,12,01,17,43,11.50
2021,12,01,17,44,11.50
2021,12,01,17,45,11.50
2021,12,01,17,46,11.60
2021,12,01,17,47,11.60
2021,12,01,17,48,11.60
2021,12,01,17,49,11.60
2021,12,01,17,50,11.60
2021,12,01,17,51,11.60
2021,12,01,17,52,11.60
2021,12,01,17,53,11.60
2021,12,01,17,54,11.60
2021,12,01,17,55,11.60
2021,12,01,17,56,11.60
2021,12,01,17,57,11.60
2021,12,01,17,58,11.60
2021,12,01,17,59,11.60
2021,12,01,18,00,11.60
2021,12,01,18,01,11.60
2021,12,01,18,02,11.50
2021,12,01,18,03,11.50
2021,12,01,18,04,11.50
2021,12,01,18,05,11.50
2021,12,01,18,06,11.50
2021,12,01,18,07,11.50
2021,12,01,18,08,11.50
2021,12,01,18,09,11.50
2021,12,01,18,10,11.50
2021,12,01,18,11,11.50
2021,12,01,18,12,11.50
2021,12,01,18,13,11.50
2021,12,01,18,14,11.50
2021,12,01,18,15,11.50
2021,12,01,18,16,11.40
2021,12,01,18,17,11.40
2021,12,01,18,18,11.40
2021,12,01,18,19,11.40
2021,12,01,18,20,11.40
2021,12,01,18,21,11.40
2021,12,01,18,22,11.40
2021,12,01,18,23,11.30
2021,12,01,18,24,11.30
2021,12,01,18,25,11.30
2021,12,01,18,26,11.30
2021,12,01,18,27,11.30
2021,12,01,18,28,11.30
2021,12,01,18,29,11.30
2021,12,01,18,30,11.30
2021,12,01,18,31,11.20
2021,12,01,18,32,11.20
2021,12,01,18,33,11.20
2021,12,01,18,34,11.20
2021,12,01,18,35,11.20
2021,12,01,18,36,11.20
2021,12,01,18,37,11.20
2021,12,01,18,38,11.20
2021,12,01,18,39,11.20
2021,12,01,18,40,11.20
2021,12,01,18,41,11.20
2021,12,01,18,42,11.10
2021,12,01,18,43,11.10
2021,12,01,18,44,11.10
2021,12,01,18,45,11.10
2021,12,01,18,46,11.10
2021,12,01,18,47,11.10
2021,12,01,18,48,11.10
2021,12,01,18,49,11.10
2021,12,01,18,50,11.10
2021,12,01,18,51,11.00
2021,12,01,18,52,11.00
2021,12,01,18,53,11.00
2021,12,01,18,54,11.00
2021,12,01,18,55,11.00
2021,12,01,18,56,11.00
2021,12,01,18,57,11.00
2021,12,01,18,58,11.00
2021,12,01,18,59,11.00
2021,12,01,19,00,11.00
2021,12,01,19,01,10.90
2021,12,01,19,02,10.90
2021,12,01,19,03,10.90
2021,12,01,19,04,10.90
2021,12,01,19,05,10.90
2021,12,01,19,06,10.90
2021,12,01,19,07,10.90
2021,12,01,19,08,10.90
2021,12,01,19,09,10.90
2021,12,01,19,10,10.90
2021,12,01,19,11,10.90
2021,12,01,19,12,10.90
2021,12,01,19,13,10.90
2021,12,01,19,14,10.90
2021,12,01,19,15,10.90
2021,12,01,19,16,11.00
2021,12,01,19,17,11.00
2021,12,01,19,18,11.00
2021,12,01,19,19,11.00
2021,12,01,19,20,10.90
2021,12,01,19,21,11.00
2021,12,01,19,22,11.00
2021,12,01,19,23,11.10
2021,12,01,19,24,11.10
2021,12,01,19,25,11.20
2021,12,01,19,26,11.20
2021,12,01,19,27,11.20
2021,12,01,19,28,11.30
2021,12,01,19,29,11.30
2021,12,01,19,30,11.30
2021,12,01,19,31,11.30
2021,12,01,19,32,11.30
2021,12,01,19,33,11.30
2021,12,01,19,34,11.30
2021,12,01,19,35,11.30
2021,12,01,19,36,11.30
2021,12,01,19,37,11.30
2021,12,01,19,38,11.30
2021,12,01,19,39,11.20
2021,12,01,19,40,11.20
2021,12,01,19,41,11.20
2021,12,01,19,42,11.20
2021,12,01,19,43,11.10
2021,12,01,19,44,11.10
2021,12,01,19,45,11.10
2021,12,01,19,46,11.10
2021,12,01,19,47,11.10
2021,12,01,19,48,11.10
2021,12,01,19,49,11.10
2021,12,01,19,50,11.10
2021,12,01,19,51,11.10
2021,12,01,19,52,11.00
2021,12,01,19,53,11.00
2021,12,01,19,54,10.90
2021,12,01,19,55,10.90
2021,12,01,19,56,10.80
2021,12,01,19,57,10.80
2021,12,01,19,58,10.80
2021,12,01,19,59,10.70
2021,12,01,20,00,10.70
2021,12,01,20,01,10.70
2021,12,01,20,02,10.70
2021,12,01,20,03,10.60
2021,12,01,20,04,10.60
2021,12,01,20,05,10.60
2021,12,01,20,06,10.60
2021,12,01,20,07,10.60
2021,12,01,20,08,10.60
2021,12,01,20,09,10.60
2021,12,01,20,10,10.60
2021,12,01,20,11,10.60
2021,12,01,20,12,10.60
2021,12,01,20,13,10.50
2021,12,01,20,14,10.50
2021,12,01,20,15,10.50
2021,12,01,20,16,10.50
2021,12,01,20,17,10.50
2021,12,01,20,18,10.40
2021,12,01,20,19,10.40
2021,12,01,20,20,10.40
2021,12,01,20,21,10.40
2021,12,01,20,22,10.30
2021,12,01,20,23,10.30
2021,12,01,20,24,10.30
2021,12,01,20,25,10.30
2021,12,01,20,26,10.20
2021,12,01,20,27,10.20
2021,12,01,20,28,10.20
2021,12,01,20,29,10.20
2021,12,01,20,30,10.10
2021,12,01,20,31,10.10
2021,12,01,20,32,10.10
2021,12,01,20,33,10.10
2021,12,01,20,34,10.00
2021,12,01,20,35,10.00
2021,12,01,20,36,10.00
2021,12,01,20,37,9.90
2021,12,01,20,38,9.90
2021,12,01,20,39,9.90
2021,12,01,20,40,9.90
2021,12,01,20,41,9.80
2021,12,01,20,42,9.80
2021,12,01,20,43,9.80
2021,12,01,20,44,9.80
2021,12,01,20,45,9.80
2021,12,01,20,46,9.70
2021,12,01,20,47,9.70
2021,12,01,20,48,9.70
2021,12,01,20,49,9.70
2021,12,01,20,50,9.70
2021,12,01,20,51,9.60
2021,12,01,20,52,9.60
2021,12,01,20,53,9.60
2021,12,01,20,54,9.60
2021,12,01,20,55,9.50
2021,12,01,20,56,9.50
2021,12,01,20,57,9.50
2021,12,01,20,58,9.50
2021,12,01,20,59,9.50
2021,12,01,21,00,9.50
2021,12,01,21,01,9.40
2021,12,01,21,02,9.40
2021,12,01,21,03,9.40
2021,12,01,21,04,9.40
2021,12,01,21,05,9.40
2021,12,01,21,06,9.40
2021,12,01,21,07,9.40
2021,12,01,21,08,9.40
2021,12,01,21,09,9.40
2021,12,01,21,10,9.40
2021,12,01,21,11,9.40
2021,12,01,21,12,9.40
2021,12,01,21,13,9.40
2021,12,01,21,14,9.40
2021,12,01,21,15,9.30
2021,12,01,21,16,9.30
2021,12,01,21,17,9.30
2021,12,01,21,18,9.20
2021,12,01,21,19,9.20
2021,12,01,21,20,9.20
2021,12,01,21,21,9.20
2021,12,01,21,22,9.20
2021,12,01,21,23,9.20
2021,12,01,21,24,9.20
2021,12,01,21,25,9.20
2021,12,01,21,26,9.20
2021,12,01,21,27,9.20
2021,12,01,21,28,9.20
2021,12,01,21,29,9.10
2021,12,01,21,30,9.10
2021,12,01,21,31,9.20
2021,12,01,21,32,9.10
2021,12,01,21,33,9.10
2021,12,01,21,34,9.10
2021,12,01,21,35,9.20
2021,12,01,21,36,9.10
2021,12,01,21,37,9.20
2021,12,01,21,38,9.20
2021,12,01,21,39,9.20
2021,12,01,21,40,9.20
2021,12,01,21,41,9.20
2021,12,01,21,42,9.20
2021,12,01,21,43,9.20
2021,12,01,21,44,9.20
2021,12,01,21,45,9.10
2021,12,01,21,46,9.10
2021,12,01,21,47,9.10
2021,12,01,21,48,9.10
2021,12,01,21,49,9.10
2021,12,01,21,50,9.10
2021,12,01,21,51,9.10
2021,12,01,21,52,9.10
2021,12,01,21,53,9.10
2021,12,01,21,54,9.00
2021,12,01,21,55,9.00
2021,12,01,21,56,9.00
2021,12,01,21,57,9.00
2021,12,01,21,58,8.90
2021,12,01,21,59,8.90
2021,12,01,22,00,8.90
2021,12,01,22,01,8.90
2021,12,01,22,02,8.90
2021,12,01,22,03,8.90
2021,12,01,22,04,8.90
2021,12,01,22,05,8.90
2021,12,01,22,06,8.90
2021,12,01,22,07,8.90
2021,12,01,22,08,8.90
2021,12,01,22,09,8.90
2021,12,01,22,10,8.90
2021,12,01,22,11,8.90
2021,12,01,22,12,8.90
2021,12,01,22,13,8.90
2021,12,01,22,14,8.90
2021,12,01,22,15,8.90
2021,12,01,22,16,8.90
2021,12,01,22,17,8.90
2021,12,01,22,18,8.90
2021,12,01,22,19,8.90
2021,12,01,22,20,8.80
2021,12,01,22,21,8.80
2021,12,01,22,22,8.90
2021,12,01,22,23,8.90
2021,12,01,22,24,8.90
2021,12,01,22,25,8.90
2021,12,01,22,26,8.90
2021,12,01,22,27,8.90
2021,12,01,22,28,8.90
2021,12,01,22,29,8.90
2021,12,01,22,30,8.90
2021,12,01,22,31,8.90
2021,12,01,22,32,8.90
2021,12,01,22,33,8.90
2021,12,01,22,34,8.90
2021,12,01,22,35,8.90
2021,12,01,22,36,8.90
2021,12,01,22,37,8.90
2021,12,01,22,38,8.90
2021,12,01,22,39,8.80
2021,12,01,22,40,8.80
2021,12,01,22,41,8.80
2021,12,01,22,42,8.80
2021,12,01,22,43,8.80
2021,12,01,22,44,8.80
2021,12,01,22,45,8.80
2021,12,01,22,46,8.80
2021,12,01,22,47,8.80
2021,12,01,22,48,8.80
2021,12,01,22,49,8.70
2021,12,01,22,50,8.70
2021,12,01,22,51,8.70
2021,12,01,22,52,8.70
2021,12,01,22,53,8.70
2021,12,01,22,54,8.70
2021,12,01,22,55,8.70
2021,12,01,22,56,8.70
2021,12,01,22,57,8.70
2021,12,01,22,58,8.70
2021,12,01,22,59,8.70
2021,12,01,23,00,8.70
2021,12,01,23,01,8.60
2021,12,01,23,02,8.60
2021,12,01,23,03,8.60
2021,12,01,23,04,8.60
2021,12,01,23,05,8.60
2021,12,01,23,06,8.60
2021,12,01,23,07,8.60
2021,12,01,23,08,8.60
2021,12,01,23,09,8.60
2021,12,01,23,10,8.60
2021,12,01,23,11,8.70
2021,12,01,23,12,8.70
2021,12,01,23,13,8.70
2021,12,01,23,14,8.70
2021,12,01,23,15,8.70
2021,12,01,23,16,8.60
2021,12,01,23,17,8.70
2021,12,01,23,18,8.60
2021,12,01,23,19,8.60
2021,12,01,23,20,8.60
2021,12,01,23,21,8.60
2021,12,01,23,22,8.60
2021,12,01,23,23,8.60
2021,12,01,23,24,8.60
2021,12,01,23,25,8.60
2021,12,01,23,26,8.60
2021,12,01,23,27,8.60
2021,12,01,23,28,8.60
2021,12,01,23,29,8.60
2021,12,01,23,30,8.60
2021,12,01,23,31,8.60
2021,12,01,23,32,8.60
2021,12,01,23,33,8.60
2021,12,01,23,34,8.60
2021,12,01,23,35,8.60
2021,12,01,23,36,8.60
2021,12,01,23,37,8.60
2021,12,01,23,38,8.60